Regional Weather Roundup
Issued by NWS

Home | Current Version | Previous Version | Graphics & Text | Print | Product List | Glossary On
Versions: 1 2 3 4 5 6 7 8 9 10 11 12 13 14 15 16 17 18 19 20 21 22 23 24 25 26 27 28 29 30 31 32 33 34 35 36 37 38 39 40 41 42 43 44 45 46 47 48 49 50
845
ASUS43 KLSX 240910
RWRMO

WEATHER SUMMARY FOR MISSOURI
NATIONAL WEATHER SERVICE SPRINGFIELD MO
400 AM CDT TUE MAY 24 2016

NOTE: "FAIR" INDICATES FEW OR NO CLOUDS BELOW 12,000 FEET WITH NO
       SIGNIFICANT WEATHER AND/OR OBSTRUCTIONS TO VISIBILITY.
       CURRENT SKY AND/OR WEATHER CONDITIONS ARE NOT AVAILABLE FOR
       CHILLICOTHE AND FARMINGTON.

MOZ001>031-035>038-043-044-053-054-241000-
...NORTHERN AND WESTERN MISSOURI...

CITY           SKY/WX    TMP DP  RH WIND       PRES   REMARKS
KANSAS CTY INT PTCLDY    61  59  93 SE6       29.88S
KANSAS C DTWN  CLOUDY    65  61  87 E3        29.88R
LEE`S SUMMIT   MOCLDY    63  60  90 S9        29.90R
ST JOSEPH      MOCLDY    63  60  90 SE5       29.88R
CHILLICOTHE      N/A     63  61  93 CALM      29.92R
KIRKSVILLE     CLEAR     64  59  83 SW6       29.93R

$$
MOZ066>068-077>081-088>096-101>105-241000-
...SOUTHWEST MISSOURI...

CITY           SKY/WX    TMP DP  RH WIND       PRES   REMARKS
SPRINGFIELD    PTCLDY    63  60  90 SE9       29.92S
JOPLIN         PTCLDY    66  62  87 SE7       29.88F

$$
MOZ032>034-039>042-045>050-055>058-069>072-241000-
...CENTRAL MISSOURI...

CITY           SKY/WX    TMP DP  RH WIND       PRES   REMARKS
COLUMBIA       PTCLDY    61  59  93 S6        29.94S
JEFFERSON CITY CLOUDY    64  59  83 CALM      29.94S
ROLLA          PTCLDY    62  56  80 S7        29.95S
SEDALIA        CLEAR     61  59  93 S7        29.93S
WHITEMAN AFB   CLEAR     61  61 100 S7        29.90F
WARRENSBURG    MOCLDY    61  59  94 SE3       29.90S
OSAGE BEACH      N/A    N/A N/A N/A E3          N/A

$$
MOZ051-052-059>065-241000-
...EAST CENTRAL MISSOURI...

CITY           SKY/WX    TMP DP  RH WIND       PRES   REMARKS
ST LOUIS INTL  CLOUDY    70  54  56 S6        29.97S
SPIRIT OF STL  CLOUDY    61  59  93 CALM      29.95F
ST CHARLES     MOCLDY    64  58  80 E7        29.95F

$$
MOZ072>076-082>087-097>100-106>115-241000-
...SOUTH CENTRAL AND SOUTHEAST MISSOURI...

CITY           SKY/WX    TMP DP  RH WIND       PRES   REMARKS
CAPE GIRARDEAU CLOUDY    64  61  90 E3        29.99R
FARMINGTON     LGT RAIN  63  57  81 CALM      29.99S
POPLAR BLUFF   CLOUDY    65  63  93 CALM      29.97S
WEST PLAINS    CLOUDY    64  56  75 SE3       29.98S

$$




USA.gov is the U.S. government's official web portal to all federal, state and local government web resources and services.